Location: Unspecified
(0.0000°N, 0.0000°E)
Time: 14:35:41
(UTC+02:00)

SWIFT - Pass Details

Date: 27 April 2018
Orbit: 546 x 562 km, 20.6° (Epoch: 24 May)

Event Time Altitude Azimuth Distance (km) Brightness Sun altitude
Exits shadow 06:23:06 79° 167° (SSE) 558 2.2 -22.9°
Drops below altitude 10° 06:27:10 10° 115° (ESE) 1,806 5.6 -22.0°
Sets 06:29:26 0° 114° (ESE) 2,698 6.7 -21.4°
